Time,TemperatureF,DewpointF,PressureIn,WindDirection,WindDirectionDegrees,WindSpeedMPH,WindSpeedGustMPH,Humidity,HourlyPrecipIn,Conditions,Clouds,dailyrainin,SoftwareType,DateUTC
2015-09-03 00:03:00,72.5,72.2,30.03,ENE,67,0.0,0.0,99,0.00,,,0.00,WUHU216WMR200,2015-09-03 04:03:00,
2015-09-03 00:08:00,72.5,72.2,30.00,ENE,67,0.0,0.0,99,0.00,,,0.00,WUHU216WMR200,2015-09-03 04:08:00,
2015-09-03 00:13:00,72.3,72.3,30.00,ENE,67,0.0,0.0,100,0.00,,,0.00,WUHU216WMR200,2015-09-03 04:13:00,
2015-09-03 00:18:00,72.0,72.0,30.00,ENE,67,0.0,0.0,100,0.00,,,0.00,WUHU216WMR200,2015-09-03 04:18:00,
2015-09-03 00:23:00,71.8,71.8,30.00,ENE,67,0.0,0.0,100,0.00,,,0.00,WUHU216WMR200,2015-09-03 04:23:00,
2015-09-03 00:28:00,71.8,71.8,30.00,ENE,67,0.0,0.0,100,0.00,,,0.00,WUHU216WMR200,2015-09-03 04:28:00,
2015-09-03 00:33:00,71.6,71.6,30.00,ENE,67,0.0,0.0,100,0.00,,,0.00,WUHU216WMR200,2015-09-03 04:33:00,
2015-09-03 00:38:00,71.6,71.6,30.00,ENE,67,0.0,0.0,100,0.00,,,0.00,WUHU216WMR200,2015-09-03 04:38:00,
2015-09-03 00:43:00,71.4,71.4,30.00,ENE,67,0.0,0.0,100,0.00,,,0.00,WUHU216WMR200,2015-09-03 04:43:00,
2015-09-03 00:48:00,71.2,71.2,30.00,NE,45,0.0,0.0,100,0.00,,,0.00,WUHU216WMR200,2015-09-03 04:48:00,
2015-09-03 00:53:00,71.2,71.2,30.00,NE,45,0.0,0.0,100,0.00,,,0.00,WUHU216WMR200,2015-09-03 04:53:00,
2015-09-03 00:58:00,71.2,71.2,30.00,NE,45,0.0,2.2,100,0.00,,,0.00,WUHU216WMR200,2015-09-03 04:58:00,
2015-09-03 01:03:00,71.1,71.1,30.00,NE,45,5.0,5.0,100,0.00,,,0.00,WUHU216WMR200,2015-09-03 05:03:00,
2015-09-03 01:08:00,71.2,71.2,30.00,NE,45,6.8,6.8,100,0.00,,,0.00,WUHU216WMR200,2015-09-03 05:08:00,
2015-09-03 01:13:00,71.6,71.6,30.00,NE,45,4.4,6.8,100,0.00,,,0.00,WUHU216WMR200,2015-09-03 05:13:00,
2015-09-03 01:18:00,71.6,71.6,30.00,NE,45,5.0,6.8,100,0.00,,,0.00,WUHU216WMR200,2015-09-03 05:18:00,
2015-09-03 01:23:00,71.8,71.8,30.03,NE,45,5.0,5.8,100,0.00,,,0.00,WUHU216WMR200,2015-09-03 05:23:00,
2015-09-03 01:28:00,71.8,71.8,30.03,NE,45,5.4,7.2,100,0.00,,,0.00,WUHU216WMR200,2015-09-03 05:28:00,
2015-09-03 01:33:00,71.6,71.6,30.03,NE,45,5.0,7.2,100,0.00,,,0.00,WUHU216WMR200,2015-09-03 05:33:00,
2015-09-03 01:38:00,71.8,71.8,30.00,NE,45,5.0,6.2,100,0.00,,,0.00,WUHU216WMR200,2015-09-03 05:38:00,
2015-09-03 01:43:00,71.6,71.6,30.00,NE,45,2.2,5.8,100,0.00,,,0.00,WUHU216WMR200,2015-09-03 05:43:00,
2015-09-03 01:48:00,71.6,71.6,30.00,NE,45,5.0,6.2,100,0.00,,,0.00,WUHU216WMR200,2015-09-03 05:48:00,
2015-09-03 01:53:00,71.6,71.6,30.00,NE,45,5.0,6.2,100,0.00,,,0.00,WUHU216WMR200,2015-09-03 05:53:00,
2015-09-03 01:58:00,71.8,71.8,30.00,NE,45,2.2,5.4,100,0.00,,,0.00,WUHU216WMR200,2015-09-03 05:58:00,
2015-09-03 02:03:00,71.6,71.6,30.00,NE,45,4.0,5.0,100,0.00,,,0.00,WUHU216WMR200,2015-09-03 06:03:00,
2015-09-03 02:08:00,71.6,71.6,30.00,NE,45,3.2,5.0,100,0.00,,,0.00,WUHU216WMR200,2015-09-03 06:08:00,
2015-09-03 02:13:00,71.6,71.6,30.00,NE,45,0.0,4.0,100,0.00,,,0.00,WUHU216WMR200,2015-09-03 06:13:00,
2015-09-03 02:18:00,71.4,71.4,30.00,NE,45,0.0,2.6,100,0.00,,,0.00,WUHU216WMR200,2015-09-03 06:18:00,
2015-09-03 02:23:00,71.2,71.2,29.97,NE,45,1.8,2.2,100,0.00,,,0.00,WUHU216WMR200,2015-09-03 06:23:00,
2015-09-03 02:28:00,71.1,71.1,29.97,NE,45,2.2,2.6,100,0.00,,,0.00,WUHU216WMR200,2015-09-03 06:28:00,
2015-09-03 02:33:00,71.1,71.1,29.97,NE,45,3.2,4.0,100,0.00,,,0.00,WUHU216WMR200,2015-09-03 06:33:00,
2015-09-03 02:38:00,70.9,70.9,30.00,NE,45,2.6,4.4,100,0.00,,,0.00,WUHU216WMR200,2015-09-03 06:38:00,
2015-09-03 02:43:00,70.7,70.7,30.00,NE,45,0.0,4.4,100,0.00,,,0.00,WUHU216WMR200,2015-09-03 06:43:00,
2015-09-03 02:48:00,70.7,70.7,30.00,NE,45,2.2,4.4,100,0.00,,,0.00,WUHU216WMR200,2015-09-03 06:48:00,
2015-09-03 02:53:00,70.7,70.7,30.03,NE,45,0.0,4.0,100,0.00,,,0.00,WUHU216WMR200,2015-09-03 06:53:00,
2015-09-03 02:58:00,70.5,70.5,30.03,NE,45,0.0,2.6,100,0.00,,,0.00,WUHU216WMR200,2015-09-03 06:58:00,
2015-09-03 03:03:00,70.3,70.3,30.03,NE,45,0.0,0.0,100,0.00,,,0.00,WUHU216WMR200,2015-09-03 07:03:00,
2015-09-03 03:08:00,70.2,70.2,30.00,NE,45,0.0,0.0,100,0.00,,,0.00,WUHU216WMR200,2015-09-03 07:08:00,
2015-09-03 03:13:00,70.0,70.0,30.00,NE,45,0.0,0.0,100,0.00,,,0.00,WUHU216WMR200,2015-09-03 07:13:00,
2015-09-03 03:18:00,69.8,69.8,30.00,NE,45,0.0,0.0,100,0.00,,,0.00,WUHU216WMR200,2015-09-03 07:18:00,
2015-09-03 03:23:00,69.8,69.8,30.03,NE,45,0.0,0.0,100,0.00,,,0.00,WUHU216WMR200,2015-09-03 07:23:00,
2015-09-03 03:28:00,69.6,69.6,30.03,NE,45,0.0,0.0,100,0.00,,,0.00,WUHU216WMR200,2015-09-03 07:28:00,
2015-09-03 03:33:00,69.4,69.4,30.03,NE,45,0.0,0.0,100,0.00,,,0.00,WUHU216WMR200,2015-09-03 07:33:00,
2015-09-03 03:38:00,69.4,69.4,30.00,NE,45,0.0,0.0,100,0.00,,,0.00,WUHU216WMR200,2015-09-03 07:38:00,
2015-09-03 03:43:00,69.4,69.4,30.00,NE,45,0.0,0.0,100,0.00,,,0.00,WUHU216WMR200,2015-09-03 07:43:00,
2015-09-03 03:48:00,69.4,69.4,30.00,NE,45,0.0,0.0,100,0.00,,,0.00,WUHU216WMR200,2015-09-03 07:48:00,
2015-09-03 03:53:00,69.4,69.4,30.00,NE,45,0.0,0.0,100,0.00,,,0.00,WUHU216WMR200,2015-09-03 07:53:00,
2015-09-03 03:58:00,69.3,69.3,30.00,NE,45,0.0,0.0,100,0.00,,,0.00,WUHU216WMR200,2015-09-03 07:58:00,
2015-09-03 04:03:00,69.1,69.1,30.00,NE,45,0.0,0.0,100,0.00,,,0.00,WUHU216WMR200,2015-09-03 08:03:00,
2015-09-03 04:08:00,69.1,69.1,30.00,NE,45,0.0,0.0,100,0.00,,,0.00,WUHU216WMR200,2015-09-03 08:08:00,
2015-09-03 04:13:00,68.9,68.9,30.00,NE,45,0.0,0.0,100,0.00,,,0.00,WUHU216WMR200,2015-09-03 08:13:00,
2015-09-03 04:18:00,68.9,68.9,30.00,NE,45,0.0,0.0,100,0.00,,,0.00,WUHU216WMR200,2015-09-03 08:18:00,
2015-09-03 04:23:00,68.7,68.7,30.00,NE,45,0.0,0.0,100,0.00,,,0.00,WUHU216WMR200,2015-09-03 08:23:00,
2015-09-03 04:28:00,68.7,68.7,30.00,NE,45,0.0,0.0,100,0.00,,,0.00,WUHU216WMR200,2015-09-03 08:28:00,
2015-09-03 04:33:00,68.7,68.7,30.00,NE,45,0.0,0.0,100,0.00,,,0.00,WUHU216WMR200,2015-09-03 08:33:00,
2015-09-03 04:38:00,68.5,68.5,30.00,NE,45,0.0,0.0,100,0.00,,,0.00,WUHU216WMR200,2015-09-03 08:38:00,
2015-09-03 04:43:00,68.7,68.7,30.00,NE,45,0.0,0.0,100,0.00,,,0.00,WUHU216WMR200,2015-09-03 08:43:00,
2015-09-03 04:48:00,68.7,68.7,30.00,NE,45,0.0,0.0,100,0.00,,,0.00,WUHU216WMR200,2015-09-03 08:48:00,
2015-09-03 04:53:00,68.5,68.5,30.00,NE,45,0.0,0.0,100,0.00,,,0.00,WUHU216WMR200,2015-09-03 08:53:00,
2015-09-03 04:58:00,68.5,68.5,30.00,NE,45,0.0,0.0,100,0.00,,,0.00,WUHU216WMR200,2015-09-03 08:58:00,
2015-09-03 05:03:00,68.4,68.4,30.00,NE,45,0.0,0.0,100,0.00,,,0.00,WUHU216WMR200,2015-09-03 09:03:00,
2015-09-03 05:08:00,68.4,68.4,30.00,NE,45,0.0,0.0,100,0.00,,,0.00,WUHU216WMR200,2015-09-03 09:08:00,
2015-09-03 05:13:00,68.4,68.4,30.00,NE,45,0.0,0.0,100,0.00,,,0.00,WUHU216WMR200,2015-09-03 09:13:00,
2015-09-03 05:18:00,68.2,68.2,30.00,NE,45,0.0,0.0,100,0.00,,,0.00,WUHU216WMR200,2015-09-03 09:18:00,
2015-09-03 05:23:00,68.2,68.2,30.03,NE,45,0.0,0.0,100,0.00,,,0.00,WUHU216WMR200,2015-09-03 09:23:00,
2015-09-03 05:28:00,68.0,68.0,30.03,NE,45,0.0,0.0,100,0.00,,,0.00,WUHU216WMR200,2015-09-03 09:28:00,
2015-09-03 05:33:00,68.0,68.0,30.03,NE,45,0.0,0.0,100,0.00,,,0.00,WUHU216WMR200,2015-09-03 09:33:00,
2015-09-03 05:38:00,67.8,67.8,30.00,NE,45,0.0,0.0,100,0.00,,,0.00,WUHU216WMR200,2015-09-03 09:38:00,
2015-09-03 05:43:00,67.8,67.8,30.00,NE,45,0.0,0.0,100,0.00,,,0.00,WUHU216WMR200,2015-09-03 09:43:00,
2015-09-03 05:48:00,67.6,67.6,30.00,NE,45,0.0,0.0,100,0.00,,,0.00,WUHU216WMR200,2015-09-03 09:48:00,
2015-09-03 05:53:00,67.6,67.6,30.00,NE,45,0.0,0.0,100,0.00,,,0.00,WUHU216WMR200,2015-09-03 09:53:00,
2015-09-03 05:58:00,67.6,67.6,30.00,NE,45,0.0,0.0,100,0.00,,,0.00,WUHU216WMR200,2015-09-03 09:58:00,
2015-09-03 06:03:00,67.6,67.6,30.00,NE,45,0.0,0.0,100,0.00,,,0.00,WUHU216WMR200,2015-09-03 10:03:00,
2015-09-03 06:08:00,67.5,67.5,30.00,NE,45,0.0,0.0,100,0.00,,,0.00,WUHU216WMR200,2015-09-03 10:08:00,
2015-09-03 06:13:00,67.5,67.5,30.00,NE,45,0.0,0.0,100,0.00,,,0.00,WUHU216WMR200,2015-09-03 10:13:00,
2015-09-03 06:18:00,67.5,67.5,30.00,NE,45,0.0,0.0,100,0.00,,,0.00,WUHU216WMR200,2015-09-03 10:18:00,
2015-09-03 06:23:00,67.5,67.5,29.97,NE,45,0.0,0.0,100,0.00,,,0.00,WUHU216WMR200,2015-09-03 10:23:00,
2015-09-03 06:28:00,67.3,67.3,29.97,NE,45,0.0,0.0,100,0.00,,,0.00,WUHU216WMR200,2015-09-03 10:28:00,
2015-09-03 06:33:00,67.3,67.3,29.97,NE,45,0.0,0.0,100,0.00,,,0.00,WUHU216WMR200,2015-09-03 10:33:00,
2015-09-03 06:38:00,67.3,67.3,30.00,NE,45,0.0,0.0,100,0.00,,,0.00,WUHU216WMR200,2015-09-03 10:38:00,
2015-09-03 06:43:00,67.3,67.3,30.00,NE,45,0.0,0.0,100,0.00,,,0.00,WUHU216WMR200,2015-09-03 10:43:00,
2015-09-03 06:48:00,67.3,67.3,30.00,NE,45,0.0,0.0,100,0.00,,,0.00,WUHU216WMR200,2015-09-03 10:48:00,
2015-09-03 06:53:00,67.3,67.3,30.00,NE,45,0.0,0.0,100,0.00,,,0.00,WUHU216WMR200,2015-09-03 10:53:00,
2015-09-03 06:58:00,67.3,67.3,30.00,NE,45,0.0,0.0,100,0.00,,,0.00,WUHU216WMR200,2015-09-03 10:58:00,
2015-09-03 07:03:00,67.3,67.3,30.00,NE,45,0.0,0.0,100,0.00,,,0.00,WUHU216WMR200,2015-09-03 11:03:00,
2015-09-03 07:08:00,67.1,67.1,30.00,NE,45,0.0,0.0,100,0.00,,,0.00,WUHU216WMR200,2015-09-03 11:08:00,
2015-09-03 07:13:00,67.3,67.3,30.00,NE,45,0.0,0.0,100,0.00,,,0.00,WUHU216WMR200,2015-09-03 11:13:00,
2015-09-03 07:18:00,67.3,67.3,30.00,NE,45,0.0,0.0,100,0.00,,,0.00,WUHU216WMR200,2015-09-03 11:18:00,
2015-09-03 07:23:00,67.5,67.5,30.00,NE,45,0.0,0.0,100,0.00,,,0.00,WUHU216WMR200,2015-09-03 11:23:00,
2015-09-03 07:28:00,67.6,67.6,30.00,NE,45,0.0,0.0,100,0.00,,,0.00,WUHU216WMR200,2015-09-03 11:28:00,
2015-09-03 07:33:00,67.5,67.5,30.00,NE,45,0.0,0.0,100,0.00,,,0.00,WUHU216WMR200,2015-09-03 11:33:00,
2015-09-03 07:38:00,67.5,67.5,30.03,NE,45,0.0,0.0,100,0.00,,,0.00,WUHU216WMR200,2015-09-03 11:38:00,
2015-09-03 07:44:00,67.6,67.6,30.03,NE,45,0.0,0.0,100,0.00,,,0.00,WUHU216WMR200,2015-09-03 11:44:00,
2015-09-03 07:49:00,67.8,67.8,30.03,NE,45,0.0,0.0,100,0.00,,,0.00,WUHU216WMR200,2015-09-03 11:49:00,
2015-09-03 07:56:00,68.0,68.0,30.03,NE,45,0.0,0.0,100,0.00,,,0.00,WUHU216WMR200,2015-09-03 11:56:00,
2015-09-03 08:01:00,68.2,68.2,30.03,NE,45,0.0,0.0,100,0.00,,,0.00,WUHU216WMR200,2015-09-03 12:01:00,
2015-09-03 08:06:00,68.4,68.4,30.03,NE,45,0.0,0.0,100,0.00,,,0.00,WUHU216WMR200,2015-09-03 12:06:00,
2015-09-03 08:11:00,68.5,68.5,30.03,NE,45,0.0,0.0,100,0.00,,,0.00,WUHU216WMR200,2015-09-03 12:11:00,
2015-09-03 08:16:00,68.7,68.7,30.03,NE,45,0.0,0.0,100,0.00,,,0.00,WUHU216WMR200,2015-09-03 12:16:00,
2015-09-03 08:21:00,69.1,69.1,30.03,NE,45,0.0,0.0,100,0.00,,,0.00,WUHU216WMR200,2015-09-03 12:21:00,
2015-09-03 08:26:00,69.3,69.3,30.03,NE,45,0.0,0.0,100,0.00,,,0.00,WUHU216WMR200,2015-09-03 12:26:00,
2015-09-03 08:31:00,69.6,69.6,30.03,NE,45,0.0,0.0,100,0.00,,,0.00,WUHU216WMR200,2015-09-03 12:31:00,
2015-09-03 08:36:00,69.8,69.8,30.03,NE,45,0.0,0.0,100,0.00,,,0.00,WUHU216WMR200,2015-09-03 12:36:00,
2015-09-03 08:41:00,70.2,70.2,30.03,NE,45,0.0,0.0,100,0.00,,,0.00,WUHU216WMR200,2015-09-03 12:41:00,
2015-09-03 08:46:00,70.5,70.5,30.03,NE,45,0.0,0.0,100,0.00,,,0.00,WUHU216WMR200,2015-09-03 12:46:00,
2015-09-03 08:51:00,70.9,70.9,30.03,NE,45,0.0,0.0,100,0.00,,,0.00,WUHU216WMR200,2015-09-03 12:51:00,
2015-09-03 08:56:00,71.1,71.1,30.03,NE,45,0.0,0.0,100,0.00,,,0.00,WUHU216WMR200,2015-09-03 12:56:00,
2015-09-03 09:01:00,71.6,71.6,30.03,NE,45,0.0,0.0,100,0.00,,,0.00,WUHU216WMR200,2015-09-03 13:01:00,
2015-09-03 09:06:00,72.0,72.0,30.03,NE,45,0.0,0.0,100,0.00,,,0.00,WUHU216WMR200,2015-09-03 13:06:00,
2015-09-03 09:11:00,72.3,72.3,30.03,NE,45,0.0,0.0,100,0.00,,,0.00,WUHU216WMR200,2015-09-03 13:11:00,
2015-09-03 09:16:00,73.0,73.0,30.03,NE,45,0.0,4.0,100,0.00,,,0.00,WUHU216WMR200,2015-09-03 13:16:00,
2015-09-03 09:21:00,73.2,73.2,30.03,NE,45,0.0,4.0,100,0.00,,,0.00,WUHU216WMR200,2015-09-03 13:21:00,
2015-09-03 09:26:00,73.4,73.4,30.03,NE,45,0.0,0.0,100,0.00,,,0.00,WUHU216WMR200,2015-09-03 13:26:00,
2015-09-03 09:31:00,73.9,73.9,30.03,NE,45,0.0,0.0,100,0.00,,,0.00,WUHU216WMR200,2015-09-03 13:31:00,
2015-09-03 09:36:00,74.5,74.5,30.03,NE,45,0.0,0.0,100,0.00,,,0.00,WUHU216WMR200,2015-09-03 13:36:00,
2015-09-03 09:41:00,75.0,75.0,30.03,NE,45,0.0,0.0,100,0.00,,,0.00,WUHU216WMR200,2015-09-03 13:41:00,
2015-09-03 09:46:00,75.4,75.1,30.03,NE,45,0.0,0.0,99,0.00,,,0.00,WUHU216WMR200,2015-09-03 13:46:00,
2015-09-03 09:51:00,75.7,75.0,30.03,NE,45,0.0,0.0,98,0.00,,,0.00,WUHU216WMR200,2015-09-03 13:51:00,
2015-09-03 09:56:00,76.3,75.6,30.03,NE,45,0.0,0.0,98,0.00,,,0.00,WUHU216WMR200,2015-09-03 13:56:00,
2015-09-03 10:01:00,76.6,75.6,30.03,NE,45,5.0,5.0,97,0.00,,,0.00,WUHU216WMR200,2015-09-03 14:01:00,
2015-09-03 10:06:00,77.5,75.5,30.03,NE,45,4.0,6.2,94,0.00,,,0.00,WUHU216WMR200,2015-09-03 14:06:00,
2015-09-03 10:11:00,78.1,75.3,30.03,NE,45,0.0,6.2,91,0.00,,,0.00,WUHU216WMR200,2015-09-03 14:11:00,
2015-09-03 10:16:00,78.4,76.0,30.03,NE,45,4.0,5.0,92,0.00,,,0.00,WUHU216WMR200,2015-09-03 14:16:00,
2015-09-03 10:21:00,78.8,75.7,30.03,NE,45,2.2,5.8,90,0.00,,,0.00,WUHU216WMR200,2015-09-03 14:21:00,
2015-09-03 10:26:00,79.3,75.5,30.03,NE,45,5.4,5.8,88,0.00,,,0.00,WUHU216WMR200,2015-09-03 14:26:00,
2015-09-03 10:31:00,79.5,74.2,30.03,NE,45,5.8,6.8,84,0.00,,,0.00,WUHU216WMR200,2015-09-03 14:31:00,
2015-09-03 10:36:00,80.1,74.4,30.03,NE,45,5.0,8.0,83,0.00,,,0.00,WUHU216WMR200,2015-09-03 14:36:00,
2015-09-03 10:41:00,80.1,73.6,30.03,NE,45,5.4,8.0,80,0.00,,,0.00,WUHU216WMR200,2015-09-03 14:41:00,
2015-09-03 10:46:00,80.1,73.6,30.03,NE,45,3.2,7.6,80,0.00,,,0.00,WUHU216WMR200,2015-09-03 14:46:00,
2015-09-03 10:51:00,80.4,73.9,30.03,NE,45,2.2,5.8,80,0.00,,,0.00,WUHU216WMR200,2015-09-03 14:51:00,
2015-09-03 10:56:00,80.8,73.9,30.03,NE,45,0.0,4.4,79,0.00,,,0.00,WUHU216WMR200,2015-09-03 14:56:00,
2015-09-03 11:01:00,81.0,74.1,30.03,NE,45,3.2,5.8,79,0.00,,,0.00,WUHU216WMR200,2015-09-03 15:01:00,
2015-09-03 11:06:00,81.1,73.4,30.03,NE,45,5.4,5.8,77,0.00,,,0.00,WUHU216WMR200,2015-09-03 15:06:00,
2015-09-03 11:11:00,81.5,73.8,30.03,NE,45,5.0,5.8,77,0.00,,,0.00,WUHU216WMR200,2015-09-03 15:11:00,
2015-09-03 11:16:00,81.9,73.7,30.03,NE,45,0.0,6.2,76,0.00,,,0.00,WUHU216WMR200,2015-09-03 15:16:00,
2015-09-03 11:21:00,82.4,74.2,30.03,NE,45,2.2,6.2,76,0.00,,,0.00,WUHU216WMR200,2015-09-03 15:21:00,
2015-09-03 11:26:00,83.1,74.5,30.03,NE,45,4.0,5.0,75,0.00,,,0.00,WUHU216WMR200,2015-09-03 15:26:00,
2015-09-03 11:31:00,83.8,75.1,30.03,NE,45,4.0,5.8,75,0.00,,,0.00,WUHU216WMR200,2015-09-03 15:31:00,
2015-09-03 11:36:00,84.4,74.4,30.03,NE,45,3.2,6.8,72,0.00,,,0.00,WUHU216WMR200,2015-09-03 15:36:00,
2015-09-03 11:41:00,84.2,73.3,30.03,NE,45,5.4,6.8,69,0.00,,,0.00,WUHU216WMR200,2015-09-03 15:41:00,
2015-09-03 11:46:00,83.7,72.8,30.03,NE,45,2.6,5.8,69,0.00,,,0.00,WUHU216WMR200,2015-09-03 15:46:00,
2015-09-03 11:51:00,83.8,73.4,30.03,NE,45,4.0,6.2,70,0.00,,,0.00,WUHU216WMR200,2015-09-03 15:51:00,
2015-09-03 11:56:00,84.4,73.5,30.03,NE,45,0.0,6.2,69,0.00,,,0.00,WUHU216WMR200,2015-09-03 15:56:00,
2015-09-03 12:01:00,84.7,73.8,30.03,NE,45,0.0,4.4,69,0.00,,,0.00,WUHU216WMR200,2015-09-03 16:01:00,
2015-09-03 12:06:00,84.6,73.7,30.03,NE,45,2.6,5.0,69,0.00,,,0.00,WUHU216WMR200,2015-09-03 16:06:00,
2015-09-03 12:11:00,84.4,73.5,30.03,NE,45,1.8,5.0,69,0.00,,,0.00,WUHU216WMR200,2015-09-03 16:11:00,
2015-09-03 12:16:00,84.4,72.1,30.03,NE,45,4.4,6.8,66,0.00,,,0.00,WUHU216WMR200,2015-09-03 16:16:00,
2015-09-03 12:21:00,84.9,73.0,30.03,NE,45,2.6,6.8,67,0.00,,,0.00,WUHU216WMR200,2015-09-03 16:21:00,
2015-09-03 12:26:00,86.2,74.3,30.03,NE,45,0.0,4.4,67,0.00,,,0.00,WUHU216WMR200,2015-09-03 16:26:00,
2015-09-03 12:31:00,86.5,74.1,30.03,NE,45,5.0,5.4,66,0.00,,,0.00,WUHU216WMR200,2015-09-03 16:31:00,
2015-09-03 12:36:00,87.3,74.3,30.03,NE,45,4.0,5.4,65,0.00,,,0.00,WUHU216WMR200,2015-09-03 16:36:00,
2015-09-03 12:41:00,89.2,75.6,30.03,NE,45,1.8,4.4,64,0.00,,,0.00,WUHU216WMR200,2015-09-03 16:41:00,
2015-09-03 12:46:00,90.5,75.8,30.03,NE,45,0.0,4.0,62,0.00,,,0.00,WUHU216WMR200,2015-09-03 16:46:00,
2015-09-03 12:51:00,89.8,73.5,30.03,NE,45,0.0,5.8,58,0.00,,,0.00,WUHU216WMR200,2015-09-03 16:51:00,
2015-09-03 12:56:00,90.7,72.6,30.03,ENE,67,0.0,8.0,55,0.00,,,0.00,WUHU216WMR200,2015-09-03 16:56:00,
2015-09-03 13:01:00,91.2,73.0,30.03,NE,45,0.0,8.0,55,0.00,,,0.00,WUHU216WMR200,2015-09-03 17:01:00,
2015-09-03 13:06:00,92.1,73.9,30.00,NE,45,7.6,7.6,55,0.00,,,0.00,WUHU216WMR200,2015-09-03 17:06:00,
2015-09-03 13:11:00,92.8,73.3,30.00,NE,45,0.0,7.6,53,0.00,,,0.00,WUHU216WMR200,2015-09-03 17:11:00,
2015-09-03 13:17:00,92.7,71.9,30.00,NE,45,5.8,7.6,51,0.00,,,0.00,WUHU216WMR200,2015-09-03 17:17:00,
2015-09-03 13:22:00,93.6,71.4,30.00,NE,45,2.6,7.6,48,0.00,,,0.00,WUHU216WMR200,2015-09-03 17:22:00,
2015-09-03 13:27:00,94.6,72.3,30.00,NE,45,0.0,7.6,48,0.00,,,0.00,WUHU216WMR200,2015-09-03 17:27:00,
2015-09-03 13:32:00,95.4,72.3,30.00,NE,45,4.4,7.6,47,0.00,,,0.00,WUHU216WMR200,2015-09-03 17:32:00,
2015-09-03 13:37:00,95.9,72.1,30.00,ENE,67,3.2,7.6,46,0.00,,,0.00,WUHU216WMR200,2015-09-03 17:37:00,
2015-09-03 13:42:00,93.6,69.2,30.00,NNE,22,9.0,11.6,45,0.00,,,0.00,WUHU216WMR200,2015-09-03 17:42:00,
2015-09-03 13:47:00,93.0,69.4,30.00,NNE,22,2.2,11.6,46,0.00,,,0.00,WUHU216WMR200,2015-09-03 17:47:00,
2015-09-03 13:52:00,94.6,71.6,30.00,ENE,67,2.6,9.0,47,0.00,,,0.00,WUHU216WMR200,2015-09-03 17:52:00,
2015-09-03 13:57:00,95.0,71.2,30.00,NNE,22,5.4,5.8,46,0.00,,,0.00,WUHU216WMR200,2015-09-03 17:57:00,
2015-09-03 14:02:00,95.2,71.4,30.00,NNE,22,5.8,8.6,46,0.00,,,0.00,WUHU216WMR200,2015-09-03 18:02:00,
2015-09-03 14:07:00,94.5,70.8,30.00,NNE,22,0.0,8.6,46,0.00,,,0.00,WUHU216WMR200,2015-09-03 18:07:00,
2015-09-03 14:12:00,95.7,71.9,30.00,NNE,22,2.6,7.2,46,0.00,,,0.00,WUHU216WMR200,2015-09-03 18:12:00,
2015-09-03 14:19:00,94.6,70.1,30.00,NNE,22,0.0,8.0,45,0.00,,,0.00,WUHU216WMR200,2015-09-03 18:19:00,
2015-09-03 14:24:00,94.6,70.9,29.97,ENE,67,2.2,8.0,46,0.00,,,0.00,WUHU216WMR200,2015-09-03 18:24:00,
2015-09-03 14:30:00,93.4,69.1,29.97,NNE,22,5.4,8.0,45,0.00,,,0.00,WUHU216WMR200,2015-09-03 18:30:00,
2015-09-03 14:35:00,93.0,70.1,29.97,NNE,22,2.2,8.0,47,0.00,,,0.00,WUHU216WMR200,2015-09-03 18:35:00,
2015-09-03 14:40:00,91.9,68.4,30.00,NNE,22,1.8,6.8,46,0.00,,,0.00,WUHU216WMR200,2015-09-03 18:40:00,
2015-09-03 14:45:00,91.8,68.3,30.00,NNE,22,5.8,9.8,46,0.00,,,0.00,WUHU216WMR200,2015-09-03 18:45:00,
2015-09-03 14:50:00,91.6,68.1,30.00,NNE,22,3.2,9.8,46,0.00,,,0.00,WUHU216WMR200,2015-09-03 18:50:00,
2015-09-03 14:55:00,92.8,69.2,29.97,NE,45,0.0,6.8,46,0.00,,,0.00,WUHU216WMR200,2015-09-03 18:55:00,
2015-09-03 15:00:00,93.0,68.7,29.97,NNE,22,5.8,7.2,45,0.00,,,0.00,WUHU216WMR200,2015-09-03 19:00:00,
2015-09-03 15:05:00,92.3,68.0,29.97,NNE,22,4.0,7.2,45,0.00,,,0.00,WUHU216WMR200,2015-09-03 19:05:00,
2015-09-03 15:10:00,91.9,66.9,30.03,North,0,3.2,7.6,44,0.00,,,0.00,WUHU216WMR200,2015-09-03 19:10:00,
2015-09-03 15:15:00,93.0,67.9,30.03,North,0,4.4,7.6,44,0.00,,,0.00,WUHU216WMR200,2015-09-03 19:15:00,
2015-09-03 15:20:00,93.2,68.1,30.03,NNE,22,4.0,6.8,44,0.00,,,0.00,WUHU216WMR200,2015-09-03 19:20:00,
2015-09-03 15:25:00,93.4,67.6,30.00,North,0,5.0,7.6,43,0.00,,,0.00,WUHU216WMR200,2015-09-03 19:25:00,
2015-09-03 15:30:00,93.0,67.9,30.00,NNE,22,2.2,7.6,44,0.00,,,0.00,WUHU216WMR200,2015-09-03 19:30:00,
2015-09-03 15:35:00,92.3,66.6,30.00,NNE,22,5.0,7.6,43,0.00,,,0.00,WUHU216WMR200,2015-09-03 19:35:00,
2015-09-03 15:40:00,92.5,68.2,30.00,NNE,22,0.0,7.6,45,0.00,,,0.00,WUHU216WMR200,2015-09-03 19:40:00,
2015-09-03 15:45:00,92.3,67.3,30.00,NNE,22,6.8,8.0,44,0.00,,,0.00,WUHU216WMR200,2015-09-03 19:45:00,
2015-09-03 15:50:00,91.2,67.0,30.00,NE,45,11.2,11.2,45,0.00,,,0.00,WUHU216WMR200,2015-09-03 19:50:00,
2015-09-03 15:55:00,90.7,66.6,30.00,North,0,1.8,11.2,45,0.00,,,0.00,WUHU216WMR200,2015-09-03 19:55:00,
2015-09-03 16:00:00,91.2,67.0,30.00,NE,45,0.0,9.0,45,0.00,,,0.00,WUHU216WMR200,2015-09-03 20:00:00,